Regional Weather Roundup
Issued by NWS Newport/Morehead, NC

Current Version | Previous Version | Graphics & Text | Print | Product List | Glossary Off
Versions: 1 2 3 4 5 6 7 8 9 10 11 12 13 14 15 16 17 18 19 20 21 22 23 24 25 26 27 28 29 30 31 32 33 34 35 36 37 38 39 40 41 42 43 44 45 46 47 48 49 50

000
ASUS42 KMHX 311424
RWRMHX
WEATHER ROUNDUP FOR EASTERN NORTH CAROLINA
NATIONAL WEATHER SERVICE NEWPORT/MOREHEAD CITY NC
1000 AM EDT MON AUG 31 2015

NOTE: "FAIR" INDICATES FEW OR NO CLOUDS BELOW 12,000 FEET
WITH NO SIGNIFICANT WEATHER AND/OR OBSTRUCTIONS TO VISIBILITY

NCZ015>017-031-032-045>047-102-103-311500-
NORTH COAST

CITY           SKY/WX    TMP DP  RH WIND       PRES   REMARKS
EDENTON        LGT RAIN  73  68  83 N6        30.14R
ELIZABETH CITY CLOUDY    80  68  66 N3        30.13S
KITTY HAWK     CLOUDY    81  69  67 CALM      30.12S
MANTEO         CLOUDY    78  70  76 E3        30.14R

$$

NCZ045>047-081-094-103-104-311500-
CENTRAL COAST

CITY           SKY/WX    TMP DP  RH WIND       PRES   REMARKS
FRISCO         CLOUDY    80  74  81 E3        30.13R
SWANQUARTER    NOT AVBL

$$

NCZ095-097-098-100-101-311500-
SOUTHERN COAST

CITY           SKY/WX    TMP DP  RH WIND       PRES   REMARKS
BEAUFORT       CLOUDY    77  74  90 SE8       30.11S
CEDAR ISLAND   NOT AVBL
JACKSONVILLE   LGT RAIN  77  75  93 SE7       30.09S
PINEY ISLAND   CLOUDY   N/A N/A N/A E6        30.11S
WILMINGTON     RAIN      76  75  97 SW5       30.10R FOG


$$

NCZ011>013-027>030-043-044-078>080-089-090>093-098-311500-
COASTAL PLAIN

CITY           SKY/WX    TMP DP  RH WIND       PRES   REMARKS
AHOSKIE        HVY RAIN  68  67  96 CALM      30.16R
CLINTON        RAIN      74  74 100 CALM      30.12R
ELIZABETHTOWN  CLOUDY    74  73  99 CALM      30.11S
GOLDSBORO      RAIN      70  70 100 VRB2      30.13R FOG
GREENVILLE     LGT RAIN  70  70 100 NE7       30.15R
HAVELOCK       LGT RAIN  78  74  87 SE8       30.11F
KENANSVILLE    HVY RAIN  71  70  96 CALM      30.13R VSB 1/4
KINSTON        RAIN      72  70  94 NE6       30.12R
NEW BERN       CLOUDY    79  71  76 E6        30.11F
RICHLANDS      CLOUDY    73  68  83 N3        30.10R
ROCKY MOUNT    RAIN      69  68  96 N8        30.13F FOG
WASHINGTON     LGT RAIN  73  69  88 N5        30.14R
WHITEVILLE     LGT RAIN  74  72  92 CALM      30.10S

$$

AMZ130-135-150-152-154-156-158-170-250-252-270-ANZ085-086-088-633-658-670-311500-
MARINE OBSERVATIONS

STATION/POSITION TIME  TEMP    WIND        PRES    WAVE   SWELL
                       AIR SEA DIR/SP/G            HT/PER HT/PER
                 (UTC) (F)     (DEG/KT/KT) (MB)    (FT/S) (FT/S)
CHESAPEAKE LIGHT 1400   77     220/  9/ 10 1020.8
64 E VA BEACH    1350   78 78  250/  6/  8 1019.9    3/10   3/10
DUCK             NOT AVBL
2 E DUCK         1311      79                N/A     2/10   2/11
OREGON INLET     NOT AVBL
13E OREGON INLT  1300      78                N/A     3/ 9   2/11
HATTERAS CG      NOT AVBL
DIAMOND BUOY     1350   82 84  150/  4/  6 1020.4    3/10   3/10
CAPE LOOKOUT     1400   79     110/ 11/ 12 1019.3
BEAUFORT LAB     NOT AVBL
30 SE NEW RVR IN 1308   81 81  140/  8/ 12 1019.2
30 SE NEW RVR IN 1325      81                N/A     4/10   2/11
27 SE WRIGHTSVLE 1300   75 81  150/  4/  6   N/A
5 SE WRIGHTSVLE  1308   80 82  150/ 12/ 16 1018.6
225 S CAPE HAT   1350   83 84  130/ 14/ 17 1019.8    3/ 8   3/ 8
41 SE CHARLESTON 1350   83 84  180/ 17/ 21 1016.9    6/10   5/10

$$



USA.gov is the U.S. government's official web portal to all federal, state and local government web resources and services.